This is the latest recevied weather packets stored in our database for station/object E24OWX-2. If no packets are shown the sender has not sent any weather packets the latest 10 day(s).
| Time | Temp. | Humidity | Pressure | Rain* | Wind** | Luminosity | Snow |
|---|---|---|---|---|---|---|---|
| 1777888754 | 34.44° C | 59% | 998 hPa | - | - | 0 W/m² | - |
| 1777887832 | 34.44° C | 59% | 998 hPa | - | - | 0 W/m² | - |
| 1777886909 | 34.44° C | 59% | 998 hPa | - | - | 0 W/m² | - |
| 1777885987 | 34.44° C | 59% | 998 hPa | - | - | 0 W/m² | - |
| 1777885065 | 34.44° C | 59% | 998 hPa | - | - | 0 W/m² | - |
| 1777884143 | 34.44° C | 59% | 998 hPa | - | - | 0 W/m² | - |
| 1777883220 | 34.44° C | 59% | 998 hPa | - | - | 0 W/m² | - |
| 1777882539 | 33.89° C | 61% | 998 hPa | - | - | 0 W/m² | - |
| 1777881617 | 36.67° C | 56% | 997 hPa | - | - | 0 W/m² | - |
| 1777880693 | 39.44° C | 49% | 997 hPa | - | - | 0 W/m² | - |
| 1777879770 | 39.44° C | 48% | 997 hPa | - | - | 0 W/m² | - |
| 1777878848 | 40° C | 47% | 997 hPa | - | - | 0 W/m² | - |
| 1777877926 | 40° C | 47% | 997 hPa | - | - | 0 W/m² | - |
| 1777877003 | 40.56° C | 46% | 997 hPa | - | - | 0 W/m² | - |
| 1777876078 | 40.56° C | 46% | 998 hPa | - | - | 0 W/m² | - |
| 1777875155 | 40° C | 47% | 998 hPa | - | - | 0 W/m² | - |
| 1777874232 | 39.44° C | 47% | 998 hPa | - | - | 0 W/m² | - |
| 1777873310 | 39.44° C | 48% | 998 hPa | - | - | 0 W/m² | - |
| 1777872386 | 38.33° C | 49% | 999 hPa | - | - | 0 W/m² | - |
| 1777871464 | 37.22° C | 50% | 999 hPa | - | - | 0 W/m² | - |
| 1777870542 | 37.78° C | 56% | 999 hPa | - | - | 0 W/m² | - |
| 1777869620 | 37.78° C | 58% | 999 hPa | - | - | 0 W/m² | - |
| 1777868698 | 37.22° C | 57% | 999 hPa | - | - | 0 W/m² | - |
| 1777867776 | 37.22° C | 57% | 1000 hPa | - | - | 0 W/m² | - |
| 1777866853 | 37.22° C | 58% | 1000 hPa | - | - | 0 W/m² | - |
* Rain since midnight (hover to see other rain measurements)
** Current wind speed in m/s (hover to see current wind gust speed)